SCP
0 0 0 0 0 0 0 0 0 1 1 1 1 1 1 1 0 0 0 0 0 0 0 0 0 0 0 0 0 0 0 0 0 0 0 0 0 0 0 0 0 0 0 0
0 0 0 0 0 0 0 0 0 1 1 1 1 1 1 1 1 0 0 0 0 0 0 0 0 0 0 0 0 0 0 0 0 0 0 0 0 0 0 0 0 0 0 0
0 0 0 0 0 0 0 0 1 1 1 2 2 2 1 1 1 0 0 0 0 0 0 0 0 0 0 0 0 0 0 0 0 0 0 0 0 0 0 0 0 0 0 0
0 0 0 0 0 0 0 1 1 1 2 2 2 2 1 1 1 0 0 0 0 0 0 0 0 0 0 0 0 0 0 0 0 0 0 0 0 0 0 0 0 0 0 0
0 0 0 0 0 0 1 1 1 2 2 2 2 1 1 1 0 0 0 0 0 0 0 0 0 0 0 0 0 0 0 0 0 0 0 0 0 0 0 0 0 0 0 0
0 0 0 0 0 0 1 1 1 2 2 2 1 1 1 1 0 0 0 0 0 0 0 0 0 0 0 0 0 0 0 0 0 0 0 0 0 0 0 0 0 0 0 0
0 0 0 0 0 0 1 1 1 2 2 1 1 1 1 0 0 1 1 1 0 0 0 0 0 0 0 0 0 0 0 0 0 0 0 0 0 0 0 0 0 0 0 0
0 0 0 1 1 1 1 1 1 2 2 1 1 1 1 0 0 1 1 0 0 0 0 0 0 0 0 0 0 0 0 0 0 0 0 0 0 0 0 0 0 0 0 0
0 0 1 1 1 1 1 1 2 2 1 1 1 1 0 0 0 0 0 0 0 0 0 0 0 0 0 0 0 0 0 0 0 0 0 0 0 0 0 0 0 0 0 0
0 0 1 1 1 1 1 1 1 1 1 1 1 0 0 0 0 0 0 0 0 0 0 0 0 0 0 0 0 0 0 0 0 0 0 0 0 0 0 0 0 0 0 0
0 0 0 0 1 1 1 1 1 1 1 0 0 0 0 0 0 0 0 0 0 0 0 0 0 0 0 0 0 0 0 0 0 0 0 0 0 0 0 0 0 0 0 0
0 1 1 1 1 1 1 1 1 1 0 0 0 0 0 0 0 0 0 0 0 0 0 0 0 0 0 0 0 0 0 0 0 0 0 0 0 0 0 0 0 0 0 0
1 1 1 1 1 1 1 1 1 0 0 0 0 0 0 0 0 0 0 0 0 0 0 0 0 0 0 0 0 0 0 0 0 0 0 0 0 0 0 0 0 0 0 0
1 1 1 1 1 1 1 1 0 0 0 0 0 0 0 0 0 0 0 0 0 0 0 0 0 0 0 0 0 0 0 0 0 0 0 0 0 0 0 0 0 0 0 0
0 0 0 1 1 1 1 1 0 0 0 0 0 0 0 0 0 0 0 0 0 0 0 0 0 0 0 0 0 0 0 0 0 0 0 0 0 0 0 0 0 0 0 0
0 0 0 0 1 1 0 0 0 0 0 0 0 0 0 0 0 0 0 0 0 0 0 0 0 0 0 0 0 0 0 0 0 0 0 0 0 0 0 0 0 0 0 0
0 0 0 0 0 0 0 0 0 0 0 0 0 0 0 0 0 0 0 0 0 0 0 0 0 0 0 0 0 0 0 0 0 0 0 0 0 0 0 0 0 0 0 0
0 0 0 0 0 0 0 0 0 0 0 0 0 0 0 0 0 0 0 0 0 0 0 0 0 0 0 0 0 0 0 0 0 0 0 0 0 0 0 0 0 0 0 0
0 0 0 0 0 0 0 0 0 0 0 0 0 0 0 0 0 0 0 0 0 0 0 0 0 0 0 0 0 0 0 0 0 0 0 0 0 0 0 0 0 0 0 0
0 0 0 0 0 0 0 0 0 0 0 0 0 0 0 0 0 0 0 0 0 0 0 0 0 0 0 0 0 0 0 0 0 0 0 0 0 0 0 0 0 0 0 0
0 0 0 0 0 0 0 0 0 0 0 0 0 0 0 0 0 0 0 0 0 0 0 0 0 0 0 0 0 0 0 0 0 0 0 0 0 0 0 0 0 0 0 0
1 0 0 0 0 0 0 0 0 0 0 0 0 0 0 0 0 0 0 0 0 0 0 0 0 0 0 0 0 0 0 0 0 0 0 0 0 0 0 0 0 0 0 0
1 1 0 0 0 0 0 0 0 0 0 0 0 0 0 0 0 0 0 0 0 0 0 0 0 0 0 0 0 0 0 0 0 0 0 0 0 0 0 0 0 0 0 0
1 1 1 0 0 0 1 0 0 0 0 0 0 0 0 0 0 0 0 0 0 0 0 0 0 0 0 0 0 0 0 0 0 0 0 0 0 0 0 0 0 0 0 0
1 1 1 1 1 1 1 1 0 0 0 0 0 0 0 0 0 0 0 0 0 0 0 0 0 0 0 0 0 0 0 0 0 0 0 0 0 0 0 0 0 0 0 0
1 1 1 1 1 1 1 1 0 0 0 0 0 0 0 0 0 0 0 0 0 0 0 0 0 0 0 0 0 0 0 0 0 0 0 0 0 0 0 0 0 0 0 0
1 1 1 1 1 1 0 0 0 0 0 0 0 0 0 0 0 0 0 0 0 0 0 0 0 0 0 0 0 0 0 0 0 0 0 0 0 0 0 0 0 0 0 0
Wind_Speed
10 12 11 10 9 8 7 6 6 2 4 7 10 13 13 13 12 12 11 11 11 11 10 10 10 10 11 10 9 10 10 11 10 8 7 7 6 6 5 5 6 5 6 7
11 12 10 9 7 6 6 5 4 3 6 10 13 14 13 13 13 12 12 12 12 12 11 10 10 10 10 10 8 8 10 10 9 8 7 6 6 5 5 5 6 7 8 9
9 11 10 6 5 5 4 3 3 2 7 13 13 14 14 14 13 13 13 12 12 11 10 9 9 9 9 9 8 8 9 9 8 7 7 6 7 6 6 6 6 7 7 8
7 9 5 2 2 2 3 4 5 9 12 12 13 12 11 12 14 14 13 13 12 11 10 9 8 8 8 8 8 8 8 8 7 7 7 6 6 6 5 4 5 5 6 7
5 6 4 2 2 3 2 3 7 13 15 15 16 14 9 10 13 13 13 12 11 11 10 8 8 8 8 7 7 8 8 7 7 7 7 6 6 5 4 4 4 5 6 6
6 6 3 1 2 1 1 3 8 13 15 16 15 8 7 11 14 14 13 12 11 11 10 8 7 7 7 8 7 8 8 7 7 6 6 6 5 4 4 3 4 5 6 6
8 4 1 2 2 4 2 4 7 11 13 13 7 7 15 16 14 14 14 13 11 10 9 8 7 7 8 8 7 8 8 7 6 5 5 5 4 3 3 3 4 5 6 6
3 1 2 4 3 4 5 7 8 11 13 13 15 18 18 17 16 15 14 13 11 9 8 7 7 7 8 7 7 7 7 6 5 4 5 6 4 3 3 3 4 4 4 5
3 4 5 6 7 7 8 10 11 14 16 18 19 19 17 16 15 14 13 12 10 10 9 7 6 7 9 7 7 7 7 6 5 6 5 4 3 3 2 2 2 3 3 4
5 8 7 7 9 9 11 12 14 16 18 19 19 18 17 16 14 13 12 11 9 10 9 8 7 9 8 8 7 7 7 6 5 4 4 4 3 3 4 4 3 3 3 3
6 9 9 9 10 12 14 16 17 17 17 18 19 18 17 15 14 12 11 9 9 9 9 10 9 9 8 7 7 7 6 5 4 5 6 6 7 6 7 7 6 5 5 5
5 8 8 11 11 14 15 16 17 18 17 16 17 17 17 14 12 12 11 10 9 9 9 10 10 9 8 7 6 5 5 4 4 4 4 5 6 6 10 7 8 10 9 6
9 12 14 14 14 15 16 17 17 17 18 16 15 16 16 14 12 12 12 12 10 10 10 10 9 8 7 7 6 5 4 3 3 3 3 4 4 5 5 4 4 5 5 5
14 15 16 15 15 16 17 18 18 18 17 16 15 15 14 14 13 13 12 11 10 10 10 10 9 9 8 7 6 5 5 4 2 2 2 3 3 4 5 5 4 3 2 2
13 14 15 16 16 17 17 17 18 17 16 16 15 15 14 14 13 12 12 11 11 11 10 10 9 8 7 7 6 5 3 3 2 2 2 2 2 3 4 4 4 4 5 4
15 17 17 17 17 17 17 18 17 17 16 16 15 14 15 14 13 12 12 12 11 11 10 9 9 8 8 7 6 4 3 3 1 1 2 2 2 2 3 3 3 3 3 3
17 18 18 17 17 17 16 16 16 16 16 16 15 15 15 14 13 12 11 11 10 10 9 9 9 9 9 7 6 5 6 6 4 3 2 3 2 2 2 2 3 3 3 3
15 16 16 17 16 16 17 16 16 16 15 16 16 15 15 14 13 12 11 11 11 10 9 9 8 8 8 7 5 4 5 6 5 3 3 2 2 2 2 2 3 3 4 5
16 17 17 17 16 16 16 16 16 16 15 15 15 14 13 13 12 12 11 11 11 10 9 8 6 6 7 5 3 4 4 5 4 4 3 3 3 2 2 2 2 1 2 3
17 18 18 17 17 16 16 16 16 15 15 15 15 14 13 13 12 12 11 9 8 8 9 8 7 6 6 6 3 4 5 5 5 5 4 4 4 3 3 3 3 2 1 1
18 19 19 18 17 17 16 17 16 15 15 15 14 14 13 13 12 11 10 8 8 10 10 8 6 6 6 6 5 6 5 5 5 4 4 4 3 3 2 2 2 2 1 1
18 18 18 18 17 16 15 15 15 16 15 14 15 14 13 13 12 10 9 7 10 10 9 8 7 6 5 4 6 6 5 6 5 5 4 4 3 4 3 3 2 2 2 1
16 16 17 17 17 16 16 15 15 15 15 15 14 14 13 11 10 9 9 8 10 10 9 8 8 10 7 5 7 6 5 5 5 5 5 5 5 4 4 4 3 2 2 2
16 16 16 16 16 16 16 16 15 13 14 14 13 13 12 10 9 8 8 11 12 12 7 7 14 12 7 6 7 6 4 5 5 5 6 5 5 5 5 4 4 3 3 3
16 16 16 16 16 14 15 15 15 14 14 11 13 14 11 9 9 8 9 12 13 12 8 9 11 10 8 8 8 7 5 5 5 4 5 4 4 5 5 4 4 3 3 3
14 13 13 13 11 10 12 13 12 12 12 12 12 12 11 9 9 8 8 13 15 11 10 9 9 9 9 9 9 8 5 5 5 5 5 4 5 5 4 4 5 4 3 3
14 12 11 12 12 12 12 12 12 13 12 12 12 12 12 11 10 10 11 11 12 11 10 10 10 10 10 10 9 8 6 6 6 6 6 6 5 5 5 5 4 3 3 4
Wind_Direction
279 275 265 264 270 278 288 296 305 359 122 142 143 134 130 127 126 123 119 114 109 105 103 102 100 97 96 94 93 95 94 91 89 88 87 86 85 82 81 86 87 79 76 68
293 286 278 283 292 297 299 310 324 77 95 119 124 130 136 140 138 132 125 119 116 113 112 110 109 107 105 104 105 104 101 100 100 98 96 96 95 90 84 78 75 73 69 65
292 294 299 287 286 289 303 354 352 45 118 130 136 142 147 146 141 134 130 126 123 118 116 114 114 114 115 114 113 109 108 109 107 104 100 100 103 97 89 84 85 85 85 83
288 306 290 291 29 12 10 41 71 104 122 126 126 125 132 138 135 133 132 128 125 121 119 118 120 121 124 123 121 119 116 115 115 110 104 98 93 94 92 90 90 92 94 94
280 286 279 288 11 39 43 54 98 117 119 118 117 111 110 124 129 132 131 127 124 125 127 129 129 131 129 125 125 121 117 114 111 110 110 108 103 100 99 100 103 101 99 100
268 288 302 347 60 21 146 104 107 125 133 138 146 140 141 137 131 130 128 127 129 134 136 137 141 141 133 129 128 123 119 116 115 114 113 111 110 108 105 105 106 102 99 97
257 262 62 27 341 299 316 117 127 134 141 152 162 120 133 136 133 132 131 135 139 142 141 141 145 141 131 127 124 123 122 120 116 115 113 105 100 101 106 98 94 98 104 101
275 282 101 10 10 43 83 112 118 124 128 122 113 117 128 133 135 136 137 143 145 138 134 137 141 135 125 121 122 121 119 117 115 114 106 101 102 104 109 116 120 120 124 123
59 94 98 67 75 94 108 112 114 118 120 123 124 128 132 134 136 138 141 145 145 141 138 140 146 139 128 128 128 124 118 110 101 94 94 105 119 124 117 113 120 121 129 129
123 114 108 96 93 95 103 109 113 119 125 127 127 131 133 134 135 139 143 145 146 141 135 134 133 129 126 128 125 121 117 111 109 111 106 84 57 59 53 43 50 73 71 90
113 120 114 98 101 106 108 111 114 119 124 127 130 133 134 135 138 139 139 139 136 133 134 131 127 125 128 124 118 121 126 128 127 114 99 85 68 51 61 52 44 45 44 51
113 133 121 117 115 116 117 118 121 123 123 127 131 132 133 134 137 138 138 137 137 139 135 133 129 127 123 122 123 128 131 134 130 128 127 127 117 92 61 80 77 72 66 65
111 115 114 118 118 119 120 121 122 124 126 128 129 132 133 135 138 140 142 143 144 142 137 131 130 131 131 133 135 131 126 121 122 124 130 134 136 135 131 105 72 71 70 68
109 115 121 122 121 120 121 121 121 122 125 128 131 134 135 137 140 144 145 144 144 140 137 136 137 137 138 138 138 139 136 124 125 128 132 133 142 146 149 153 154 152 159 196
122 123 123 122 123 124 125 126 127 128 131 133 135 136 138 140 142 144 144 144 142 141 141 141 141 141 144 142 144 146 146 140 143 138 143 137 143 141 144 150 151 157 160 186
126 125 128 130 132 135 136 136 135 137 138 138 139 139 139 140 140 140 141 144 147 146 145 145 145 148 148 146 149 143 121 104 127 173 145 139 147 136 135 146 150 157 172 174
141 141 142 142 143 143 142 141 140 141 141 141 141 140 140 140 140 141 142 142 142 142 145 149 151 154 153 160 174 174 163 155 186 208 170 152 155 149 144 148 147 147 120 96
147 146 147 147 147 145 144 143 143 143 143 143 143 144 146 146 146 145 142 140 143 147 152 155 154 160 160 167 186 193 171 167 178 174 156 138 145 163 158 146 145 150 151 171
147 146 147 148 147 145 145 145 145 144 144 146 146 147 148 147 146 145 145 148 151 153 152 136 138 163 159 157 200 185 170 161 154 156 144 140 197 182 160 160 166 185 183 173
147 147 148 148 148 146 145 145 144 144 147 148 148 148 149 148 149 150 152 157 157 147 141 143 165 172 166 166 230 225 176 166 162 161 165 176 181 178 187 179 172 173 205 132
150 151 152 151 149 148 148 148 148 149 150 151 151 153 152 151 154 155 164 160 145 142 146 155 189 182 183 170 200 235 188 168 166 166 174 178 177 186 187 189 186 187 200 183
153 155 155 151 150 148 148 150 152 152 152 155 156 155 155 157 161 166 177 155 148 149 162 177 199 180 160 181 221 226 188 169 172 171 183 187 186 193 196 206 208 202 190 168
154 156 155 153 151 149 150 155 156 157 159 161 161 161 162 166 169 175 174 156 156 166 189 187 163 142 151 215 253 244 186 170 179 177 185 194 198 201 201 210 217 215 206 207
155 155 153 152 151 153 158 160 158 160 163 164 164 165 167 171 178 187 169 155 158 167 194 152 151 158 179 228 253 250 191 179 193 199 201 205 202 201 202 207 216 215 206 213
156 156 155 156 158 161 161 160 159 164 168 168 167 170 176 183 185 182 160 156 157 167 171 162 172 175 202 228 243 246 219 193 196 210 207 208 218 215 203 201 214 221 218 215
157 160 159 165 163 162 164 165 168 170 174 172 171 175 182 186 187 171 158 162 170 183 184 173 184 197 219 229 238 246 225 181 188 215 230 225 228 232 222 216 223 224 225 227
160 159 161 169 170 172 172 173 174 177 179 177 175 177 183 186 184 176 173 171 176 187 200 192 191 201 215 224 231 236 233 219 210 211 220 225 231 236 234 227 227 225 227 231